Location: LDNL
(36.4545°S, 141.6685°E)
Time: 14:57:05
(UTC+10:00)

Hubble Space Telescope - Pass Details

Date: 03 July 2022
Orbit: 532 x 535 km, 28.5° (Epoch: 10 August)

Event Time Altitude Azimuth Distance (km) Brightness Sun altitude
Exits shadow 06:37:15 - 303° (WNW) 1,881 3.2 -13.5°
Reaches altitude 10° 06:37:39 10° 307° (NW) 1,787 3.1 -13.4°
Maximum altitude 06:40:01 15° 342° (NNW) 1,497 3.1 -12.9°
Drops below altitude 10° 06:42:23 10° 18° (NNE) 1,783 3.9 -12.5°
Sets 06:45:27 0° 41° (NE) 2,670 5.5 -11.9°
